Location: Cucq
(50.4773°N, 1.6202°E)
Time: 03:33:13
(UTC+00:00)

USA 229 - Pass Details

Date: 07 August 2020
Orbit: 973 x 1239 km, 63.4° (Epoch: 22 September)

Event Time Altitude Azimuth Distance (km) Brightness Sun altitude
Exits shadow 02:48:45 14° 193° (SSW) 2,490 5.1 -13.6°
Maximum altitude 02:54:10 50° 122° (ESE) 1,291 4.2 -13.0°
Drops below altitude 10° 03:00:44 10° 49° (NE) 2,920 7.5 -12.3°
Sets 03:03:32 0° 45° (NE) 3,921 8.9 -12.0°
